Simultaneous Nadir Overpasses (SNOs) Predictions

Prediction of SNOs over PacNW region [( 10.00, 139.50) to ( 22.70, 165.60)] between AQUA and NPP Satellites:

Table of predicted SNOs over PacNW region for the next 30.0 days since TLE Epoch: 12/14/2018
Index Date (AQUA) Time (AQUA) AQUA Lat,Lon Date (NPP) Time (NPP) NPP Lat,Lon Distance(km) Time Diff (sec)
1 12/21/2018 15:09:51 22.61, 159.85 12/21/2018 15:11:27 23.22, 157.15 285.62 96
2 12/24/2018 03:31:41 22.68, 147.53 12/24/2018 03:28:11 24.39, 145.24 300.89 210
3 12/29/2018 15:59:19 22.61, 147.49 12/29/2018 16:02:09 23.29, 144.47 318.21 170
4 01/06/2019 15:09:53 22.61, 159.85 01/06/2019 15:11:23 23.23, 157.14 286.05 90
5 01/09/2019 03:31:43 22.65, 147.53 01/09/2019 03:28:14 24.77, 145.14 339.19 209




NCC Satellite Simultaneous Nadir Overpasses (SNOs) Prediction Service
